Погода в Няксимволе

Погода в Няксимволе : погода сейчас, прогноз погоды и архив. Всё, что Вы хотите узнать о погоде в Няксимволе!

Хотите узнать прогноз погоды в Няксимволе? Тогда Вам сюда: Погода в Няксимволе

Поиск расширенной информации на нашем сайте:

Другие новости

Новости СМИ2

Главная страница сайта

Новости сайта

03.07.2017

Напоминаем, что на нашем специализированном сайте Метеоцентр.Азия вы можете получить высокодетализированные автоматические прогнозы погоды по пунктам России, СНГ и мира в авиационном формате (включающие направление и скорость ветра, видимость, явления погоды, количество и форму облачности, нижнюю и верхнюю границу облачности).


Погода в Няксимволе - сегодня

Время (UTC), дата Ветер
(°,м/с) 
Видим.   Явления Облачность Т
(°С)
Тd
(°С)
f(%) Тe
(°С)
Pmin
(гПа)
dP
(гПа)
Po
(мм)
O2
(г/м3)
Тmin Tmax R s Состояние
почвы
00 20.02.18 040 (СВ) н/о    н/о 
-8.6 -9.3 95 -8  1020.9  -0.3  761  317           
03 20.02.18 320 (СЗ) 20000 м  снег  10/0 средняя 
[As trans]
-11 -11.9 93 -13  1020.2  -0.7  760  320  -11    44  равномерный
сухой снег
100% 
09 20.02.18 360 (С) 20000 м  слаб. снег  10/0 средняя 
[As trans]
-11.2 -13.4 84 -14  1020.4  0.3  760  321           
12 20.02.18 350 (С) 20000 м  слаб. снег  10/0 средняя 
[As trans]
-12.3 -14 87 -14  1020.4  0.1  760  322           
15 20.02.18 350 (С) 20000 м  слаб. снег  10/0 средняя 
[As trans]
-15.1 -16.7 88 -17  1020.2  -0.2  760  326    -10.5     
18 20.02.18 360 (С) 20000 м  слаб. снег  10/0 средняя 
[As trans]
-15.9 -17.6 87 -20  1019.9  -0.4  760  327           
21 20.02.18 360 (С) 20000 м  слаб. снег  10/0 средняя 
[As trans]
-18.1 -20.2 84 -22  1019.8  -0.1  760  329           
00 21.02.18 350 (С) 20000 м  слаб. снег  10/0 средняя 
[As trans]
-20 -22.4 81 -24  1019.8  760  332           
03 21.02.18 360 (С) 20000 м  слаб. снег  10/0 средняя 
[As trans]
-20.9 -23.4 80 -25  1019.4  -0.5  759  333  -20.9    50  равномерный
сухой снег
100% 
09 21.02.18 340 (С) 20000 м  слаб. снег  10/0 средняя 
[As trans]
-20.1 -22.8 79 -24  1018  -0.8  758  331           
12 21.02.18 360 (С) 20000 м  слаб. снег  10/0 средняя 
[As trans]
-20.2 -22.9 79 -25  1017.4  -0.6  758  331           
15 21.02.18 350 (С) 20000 м  {снег}  10/0 средняя 
[As trans]
-21 -23.6 80 -24  1016.9  -0.5  757  332    -19.9     
18 21.02.18 350 (С) 20000 м  {снег}  6/0 средняя 
[As trans]
-22.2 -24.7 80 -25  1016.8  0.1  757  334           
21 21.02.18 330 (СЗ) 20000 м  {снег}  6/0 средняя 
[As trans]
-23.6 -26.2 79 -27  1016.8  0.1  757  336           
00 22.02.18 330 (СЗ) 20000 м  {снег}  8/0 средняя 
[As trans]
-23.9 -26.6 78 -27  1016.6  0.1  757  336           
03 22.02.18 350 (С) 20000 м    10/0 средняя 
[As trans]
-23.8 -26.7 77 -29  1016.4  -0.3  757  336  -24.1    51  равномерный
сухой снег
100% 
06 22.02.18 340 (С) 20000 м  слаб. снег  10/0 средняя 
[As trans]
-23.1 -26.1 76 -28  1016.2  -0.2  757  335           
09 22.02.18 340 (С) 20000 м  слаб. снег  10/0 средняя 
[As trans]
-20.4 -23.4 77 -25  1015.5  -0.5  756  331           
12 22.02.18 350 (С) 20000 м  слаб. снег  10/0 средняя 
[As trans]
-19.5 -22 81 -22  1015.6  0.1  757  330           
15 22.02.18 340 (С) 20000 м  слаб. снег  10/0 средняя 
[As trans]
-19.9 -22.1 83 -23  1015.9  0.3  757  331    -19.5     
18 22.02.18 350 (С) 20000 м  слаб. снег  10/0 средняя 
[As trans]
-21.3 -23.4 83 -22  1017  758  333           
21 22.02.18 320 (СЗ) 20000 м  слаб. снег  10/0 средняя 
[As trans]
-24.2 -26.5 81 -27  1018.2  1.1  758  337           
00 23.02.18 330 (СЗ) 20000 м  слаб. снег  10/0 средняя 
[As trans]
-24.6 -27 81 -25  1019.4  1.2  759  338           
03 23.02.18 330 (СЗ) 20000 м  слаб. снег  10/0 средняя 
[As trans]
-24.4 -26.7 81 -28  1020.3  0.9  760  338  -24.7    0.6  51  равномерный
сухой снег
100% 
09 23.02.18 340 (С) 20000 м    10/0 верхняя 
[Cs]
-19.8 -23 76 -24  1021.2  0.3  761  332           
Время (UTC), дата Ветер
(°,м/с) 
Видим.   Явления Облачность Т
(°С)
Тd
(°С)
f(%) Тe
(°С)
Pmin
(гПа)
dP
(гПа)
Po
(мм)
O2
(г/м3)
Тmin Tmax R s Состояние
почвы

Для получения пояснительной информации подведите курсор к названию столбца.

ПОГОДА в Няксимволе - архив

Всё, что Вы хотите узнать о погоде в Няксимволе - удобно и подробно!

Выберите нужную дату (начиная с 1 января 2015* года) и нажмите кнопку "Найти".
Будут отображены архивные сводки погоды по пункту Няксимволь, начиная с указанной даты.


Отображать данные в формате CSV (для использования в таблицах Excel)


Внимание! Наш архив погоды предназначен исключительно для личного некоммерческого использования в познавательных целях. Если Вам необходимы официальные справки о состоянии погоды (для производственных, юридических, коммерческих и т.п. целей), обращайтесь в органы Росгидромета.

*Примечание: данная дата относится к архиву по метеостанциям СССР (Россия, СНГ, Балтия).
Архив по метеостанциям Зарубежной Европы и Азии (кроме Китая) хранится 10 дней, по другим регионам земного шара (Китай, Африка, Америка, Австралия, Океания) - 1 день.

Няксимволь - район местоположения метеостанции


Название, широта, долгота, высота метеостанции:
Няксимволь 62.4°ш. 60.9°д. 51 м над ур. моря [Российская Федерация]

Дополнительная информация

В oтличие oт бoльшинства пoгoдных сайтoв мы публикуем пoдрoбную метеoинфoрмацию в детальнoм прoфессиoнальнoм фoрмате.

Характеристики температуры и влажнoсти вoздуха измеряются на высoте 2 м в тени вдали oт зданий и деревьев.
Скoрoсть ветра измеряется на высoте 10 м (на урoвне рoста челoвека скoрoсть ветра ниже в 1.5-2 раза). Если метеoстанция нахoдится в гoрoде или в лесу, тo скoрoсть ветра занижена на 2-4 м/с пo сравнению с oткрытым местoм. Скoрoсть ветра над акватoриями крупных рек и oзёр, а также на вершинах хoлмoв на 2-5 м/с выше, чем в oбычных услoвиях.
Атмoсфернoе давление в разных тoчках местнoсти мoжет значительнo oтличаться oт давления на метеoстанции, в зависимoсти oт услoвий рельефа (при пoдъёме на 10 м давление пoнижается примернo на 1 мм рт.ст.).